Weather in Aleksandrovo

Russia / Pskov Oblast     56°06′03″N   29°03′29″E
temp.,
°C
wind,
m/s
gust,
m/s
humid.,
%
clouds,
%
prec.,
mm/h
press.,
hPa
HPBL,
m
17 april, sat
sat1700:00+10ne41183100 0.1 1020558
03:00+8ne5128873 0.3 1020529
06:00+7ne41188100 0.0 1020461
09:00+8ene4108584 0.0 1021461
12:00+9ene488790 0.1 1022528
15:00+12ene4670100 0.1 10221019
18:00+13ne486896 0.0 10211079
21:00+11ne41076100 0.0 1021694
18 april, sun
sun1800:00+9ne4127958 0.0 1022521
03:00+7ne4128179 0.0 1022449
06:00+6ne41177100 0.0 1022403
09:00+8ne596436 0.0 1022542
12:00+12ne575345 0.0 10221023
15:00+14ne574665 0.0 10221636
18:00+13ene4748100 0.0 1022855
21:00+10se2372100 0.0 102393
19 april, mon
mon1900:00+7ne228243 0.0 102446
03:00+6ene311865 0.0 1024396
06:00+5ene4118642 0.0 1024483
09:00+7ene41074100 0.0 1024827
12:00+10e586392 0.0 10241317
15:00+11ene486083 0.1 10231487
18:00+10e476599 0.5 10221171
21:00+7e378198 0.8 1023355
20 april, tue
tue2000:00+6ene498692 0.1 1022683
03:00+6ene3986100 0.2 1020738
06:00+5ene4889100 0.1 1019877
09:00+5ene4890100 0.1 1018792
12:00+7ene5774100 0.1 1016971
15:00+9ne3766100 0.1 10141345
18:00+6ene3986100 0.2 1012841
21:00+6nne4991100 0.3 10091122
21 april, wed
wed2100:00+4nne51096100 1.2 1004940
03:00+3n51197100 4.8 1001747
06:00+2nnw51097100 2.9 998579
09:00+2nw5997100 3.4 997544
12:00+2wnw5996100 1.7 997580
15:00+2w41097100 4.5 999601
18:00+3w51097100 0.6 1001649
21:00+3wsw4997100 1.1 1004955